Dewpoint
61 49 41 35 34 28 24 19 13 12 13 13 10 11 12 10 8 8 10 24 20 39 37 35 37 34 29 33 39 48 49 49 51 47 51 65 66 65 64 66 66 66 65 66 67 68 70 71 72 71 72 72 72 73 73 73 73 73 73 73 73 73 73 73 73 73 73 73 72 72 72 72 72 72 72 72 72 71 71 71 71 71 70 70 70 70 70 70 70 70 70 70 70 69 69 69 68
34 35 34 34 27 22 17 15 14 11 12 10 10 11 11 10 11 14 25 29 37 36 37 38 41 39 33 33 36 46 51 58 58 62 64 64 65 66 66 67 66 65 65 65 67 68 68 70 72 72 72 72 72 72 73 72 72 73 73 73 73 73 73 73 73 73 73 73 73 73 73 72 72 72 72 72 72 71 71 71 71 71 70 70 70 70 70 70 69 70 70 69 70 69 69 68 68
30 32 24 21 19 20 19 15 12 13 11 10 10 11 12 8 8 22 35 37 39 39 40 45 42 44 42 37 30 38 51 57 61 62 64 65 64 67 67 66 65 65 64 66 67 67 68 70 72 72 72 72 72 72 72 72 72 73 73 73 73 73 73 73 73 73 73 73 73 73 72 72 72 72 72 71 71 71 71 71 71 71 70 70 70 70 70 69 70 69 69 69 68 69 69 68 68
43 37 23 15 12 14 16 14 13 12 10 10 10 10 11 10 9 28 37 37 41 36 42 43 41 50 45 42 45 49 53 55 60 62 62 64 66 67 67 66 67 64 65 66 66 65 68 70 71 72 71 72 72 72 72 72 72 72 73 73 72 73 73 73 73 73 73 72 72 72 72 72 72 72 71 71 70 70 70 70 70 70 70 70 70 69 69 69 68 69 69 68 68 68 68 68 68
28 29 19 13 16 17 14 14 13 11 10 11 10 10 11 11 23 27 28 32 41 43 41 44 37 48 55 52 50 46 55 58 59 59 64 66 67 68 66 66 65 64 64 64 65 66 68 71 71 71 72 71 72 72 72 72 72 72 72 72 72 73 73 73 73 73 72 72 72 72 72 71 71 71 71 71 71 70 70 70 69 70 69 69 68 69 68 68 68 68 68 67 66 67 68 68 68
29 18 21 14 13 16 15 13 11 9 8 8 9 9 10 7 17 24 11 4 37 41 43 42 39 46 47 58 56 56 58 55 58 63 65 67 67 67 66 66 64 63 63 65 66 66 68 71 71 71 71 72 72 72 72 72 72 72 72 72 72 73 73 72 72 72 72 72 72 72 72 71 71 71 70 70 69 70 70 70 69 69 69 68 68 68 68 68 67 67 67 67 68 68 69 69 69
17 18 18 16 13 12 12 10 7 6 6 8 8 8 7 7 13 16 10 3 21 36 44 44 46 43 48 55 57 60 59 58 58 63 66 67 67 66 67 64 63 64 65 66 66 67 67 71 71 71 71 72 72 72 72 72 72 72 72 72 72 72 73 73 72 72 72 72 72 71 71 71 71 70 69 69 68 68 68 68 68 68 68 68 67 67 68 68 68 67 67 68 69 69 70 70 69
21 16 13 14 14 12 10 10 9 7 7 7 7 6 9 9 11 15 8 2 10 33 43 41 40 42 48 51 52 60 61 61 62 66 67 67 66 65 65 64 64 64 65 66 67 68 71 71 71 71 71 72 72 72 72 72 72 72 72 72 73 72 73 72 72 71 71 71 71 71 71 71 71 70 69 69 68 68 68 67 67 67 67 67 67 67 67 67 68 67 67 68 70 70 70 70 70
14 11 11 13 13 11 9 7 7 7 8 8 7 12 30 9 8 12 5 3 2 14 24 43 45 42 49 53 58 62 63 64 66 67 67 67 65 65 64 64 64 65 66 67 67 67 67 71 71 71 72 72 72 72 72 72 72 72 72 72 73 73 73 72 72 72 71 71 71 71 71 70 70 70 69 69 68 68 68 68 68 68 67 67 67 66 66 67 67 67 67 69 70 70 70 70 70
11 12 11 14 11 11 7 6 6 5 6 7 4 5 5 8 7 7 6 2 1 5 24 43 44 36 50 55 57 62 64 65 65 66 67 65 65 64 65 64 64 66 67 66 66 66 67 71 71 71 72 72 72 72 72 72 72 72 72 73 73 72 72 72 72 71 71 71 70 70 70 70 69 69 69 68 68 68 68 68 68 67 67 67 67 67 67 67 67 67 68 69 70 70 70 70 70
12 11 12 10 11 9 9 8 7 7 6 7 3 5 5 5 4 1 2 0 -1 3 26 46 41 47 52 56 62 65 65 65 64 65 65 65 65 65 65 65 65 67 67 66 67 67 67 68 72 72 72 72 72 72 73 73 73 73 73 73 73 72 72 72 72 71 71 71 70 70 70 70 70 69 69 68 68 68 68 67 66 67 67 67 66 66 67 67 67 67 68 68 70 70 70 70 70
11 10 10 10 9 9 6 6 4 3 3 3 0 4 2 1 1 1 1 1 -1 1 15 43 41 52 52 57 61 65 66 66 66 65 66 65 65 66 66 65 66 67 68 68 66 67 67 68 67 71 72 72 73 73 73 73 72 72 72 72 72 72 72 72 71 72 71 71 70 70 69 69 68 68 68 68 68 68 68 68 67 66 67 67 67 67 67 67 67 67 67 69 69 70 70 70 70
10 7 7 9 10 7 5 3 1 4 1 0 1 -1 9 10 10 11 8 5 1 2 12 40 50 55 53 57 63 65 65 66 66 67 66 66 66 65 66 66 67 68 68 67 66 66 67 67 66 67 70 72 72 72 72 72 72 72 72 72 72 72 72 71 72 71 71 71 70 70 70 69 69 68 69 69 68 68 68 68 68 67 68 67 66 67 67 66 66 66 67 69 69 70 70 70 70
11 8 4 5 7 6 3 2 -0 -3 -1 1 0 12 11 10 11 14 13 5 0 2 18 42 50 52 57 60 64 65 66 66 67 67 67 66 66 66 66 66 69 68 67 67 66 67 66 66 67 67 68 68 70 71 71 71 71 72 72 72 72 72 72 72 72 71 71 70 70 70 70 69 69 69 69 69 68 68 68 69 68 68 67 67 67 67 67 66 66 66 67 68 70 70 70 70 70
8 7 4 1 1 5 1 -2 -4 -1 -1 -5 12 11 11 10 9 21 18 12 3 4 20 45 46 47 54 55 60 62 66 67 67 67 67 67 66 66 67 67 68 69 67 66 66 67 65 67 66 67 69 67 67 67 69 70 71 71 71 71 72 72 72 72 71 71 71 70 70 69 69 69 69 69 68 68 68 68 68 69 69 68 68 66 67 67 66 66 66 67 67 68 69 70 70 70 70
6 6 4 7 3 1 -3 -4 0 -2 -4 -5 12 11 10 9 34 31 24 18 8 15 41 46 49 50 55 48 58 64 66 68 68 68 68 67 67 66 66 68 68 67 67 68 66 65 66 66 66 67 68 68 68 67 68 69 70 70 71 71 71 71 71 71 71 71 71 70 70 70 70 70 69 69 69 69 69 69 69 68 68 69 68 66 66 66 66 65 66 66 67 67 69 70 70 70 70
14 11 10 9 5 -1 -3 -6 -5 -6 -7 1 11 9 8 5 34 34 30 19 14 36 45 50 50 51 50 46 59 66 67 68 68 67 67 67 67 66 66 68 67 67 67 67 67 67 68 68 66 66 67 68 68 68 68 69 69 70 70 71 71 70 71 71 70 71 71 71 70 71 70 71 66 70 70 67 68 68 69 68 68 68 68 67 66 65 66 66 66 67 66 67 69 69 70 70 70
13 10 8 9 4 -5 -6 -6 -8 -6 -6 -2 10 10 10 8 28 30 33 26 17 43 40 51 56 55 62 65 65 67 67 67 67 66 66 65 65 64 65 65 66 65 65 66 68 67 66 66 66 66 67 67 68 67 67 67 68 69 68 69 69 70 70 71 71 69 70 68 70 68 68 64 64 64 65 67 68 69 68 68 68 68 68 68 67 66 66 67 66 66 66 66 68 69 70 69 68
12 10 10 4 -1 -3 -5 -6 -4 -2 0 9 11 13 13 11 29 36 28 22 28 41 41 53 61 58 64 65 65 66 66 67 67 67 65 65 63 64 64 64 65 64 65 65 66 66 67 65 66 66 66 65 66 65 66 67 66 64 65 66 65 67 68 69 67 66 66 64 65 63 65 66 67 67 67 65 68 70 69 69 69 68 68 69 68 68 67 67 67 64 66 66 66 68 68 66 65
12 9 3 1 -3 -2 1 3 3 4 9 11 11 11 11 14 26 38 25 20 29 38 52 52 54 58 60 64 65 65 65 65 66 66 63 63 63 63 64 65 64 64 64 64 65 66 66 65 66 66 66 66 65 65 66 66 63 64 65 64 63 65 66 65 62 62 63 64 64 66 67 68 68 70 69 68 67 68 69 69 69 69 68 69 69 69 68 67 67 66 66 66 66 65 65 64 61
9 5 1 -0 -2 -3 6 6 5 4 8 10 11 12 11 17 33 37 27 21 27 41 45 50 56 54 62 62 64 64 64 64 64 64 64 62 63 64 65 64 64 63 64 65 65 66 65 66 66 65 65 66 64 64 64 61 62 61 62 63 65 63 63 63 63 64 64 65 66 68 67 68 69 70 69 69 70 70 69 69 69 68 68 67 69 68 67 63 63 55 58 62 60 60 61 60 59
8 3 2 2 9 8 7 6 2 5 12 10 11 10 14 31 34 37 30 28 28 35 48 49 56 59 60 62 62 63 62 62 63 63 63 63 63 64 64 64 64 64 64 63 64 65 65 64 64 64 65 64 62 61 61 61 62 61 62 64 64 63 63 62 64 65 65 67 67 67 67 68 69 71 70 70 70 70 71 70 70 70 70 68 64 66 64 64 65 60 56 55 55 60 61 61 60
10 6 4 4 10 13 7 7 8 10 8 7 8 10 18 40 38 37 33 41 53 53 58 52 57 60 60 60 60 59 58 59 62 63 63 62 63 63 64 64 63 63 63 64 64 64 64 63 63 65 62 61 62 60 62 61 61 62 63 63 63 63 64 64 65 65 67 67 67 67 68 68 67 66 68 71 71 69 71 72 72 71 67 66 66 64 64 64 62 63 60 59 55 56 57 59 58
12 6 11 12 10 15 11 11 11 9 9 11 11 12 11 30 38 35 36 50 55 51 53 56 58 58 60 57 57 58 59 59 63 62 63 62 63 64 64 64 64 64 63 63 62 62 62 63 63 62 62 62 64 62 62 60 61 63 64 63 63 62 64 65 66 66 67 67 68 69 68 67 67 66 68 68 68 68 67 68 67 66 65 65 66 66 64 63 62 62 63 61 58 55 55 58 56
13 9 10 12 11 16 12 13 11 8 9 11 12 11 11 25 40 38 46 53 52 53 50 50 53 57 59 57 58 60 61 62 63 64 64 63 65 65 65 63 63 63 61 61 60 61 61 62 61 62 63 63 63 62 61 61 63 64 64 65 64 66 67 66 67 68 68 67 68 68 68 69 67 68 68 67 68 68 68 68 67 66 67 66 67 66 66 65 63 63 63 61 61 59 59 61 58
11 11 9 14 13 14 10 10 8 8 10 11 11 14 17 23 49 44 54 55 55 55 51 48 56 59 58 58 60 61 62 63 64 65 65 65 66 64 64 63 62 60 60 60 60 61 61 61 62 63 63 63 64 64 63 62 65 65 65 66 66 67 67 67 67 66 67 68 67 68 68 68 67 67 68 68 68 69 68 68 68 67 67 67 67 67 66 66 65 63 62 62 57 59 58 59 59
13 14 8 12 13 12 10 7 6 9 10 11 13 20 28 29 47 55 62 59 57 55 56 58 57 59 58 58 60 62 63 64 65 66 66 66 65 64 64 63 60 61 61 61 61 61 62 63 63 64 64 65 65 65 65 67 67 65 65 66 65 66 67 68 69 69 69 69 69 68 67 68 68 68 68 68 68 68 68 68 68 68 67 68 67 66 67 67 67 66 65 63 62 60 60 59 57
13 11 5 4 12 12 9 7 6 7 9 11 16 32 30 34 47 47 58 62 59 56 57 58 58 59 58 59 60 62 63 64 64 65 65 65 64 63 64 61 60 60 60 61 61 62 63 64 65 64 65 66 66 66 67 67 67 67 68 69 69 69 69 69 69 69 68 68 68 68 69 68 68 70 70 69 69 67 67 67 67 67 68 67 67 66 65 66 67 66 66 66 65 64 61 60 61
9 12 4 4 11 10 11 9 6 10 9 12 24 31 36 38 41 52 58 61 61 61 59 58 58 59 59 60 62 62 62 63 64 64 65 64 64 64 63 61 60 60 60 63 63 65 66 66 66 67 67 68 67 67 67 68 68 67 69 69 69 68 68 69 69 68 69 68 69 69 69 69 70 70 70 69 67 68 68 69 67 67 68 68 68 68 67 67 67 67 67 67 66 65 64 63 60
8 12 10 7 9 8 10 8 5 9 8 16 23 25 30 34 45 55 59 60 61 60 58 58 57 59 60 61 61 62 62 63 63 63 64 64 64 64 62 61 61 60 61 63 66 67 67 67 68 69 69 69 69 69 69 67 68 69 67 68 68 69 70 68 68 69 68 68 69 69 69 68 68 69 69 70 69 69 69 68 68 67 67 67 68 69 68 67 66 66 64 64 64 64 63 63 62
8 8 7 7 4 3 3 4 3 6 8 13 22 25 23 32 56 60 63 63 60 58 57 56 57 60 61 62 61 61 62 62 63 63 64 65 65 63 62 62 62 63 63 66 67 68 68 69 69 69 70 70 69 69 69 68 69 68 67 69 69 69 69 68 68 68 69 68 68 69 70 69 69 69 69 69 69 69 67 67 67 67 69 69 67 67 68 68 66 66 64 64 66 64 64 61 61
8 4 4 -0 0 0 -1 3 2 5 7 14 26 24 29 43 52 53 61 62 61 59 58 58 60 60 62 62 62 61 61 62 63 63 64 64 65 62 63 63 63 67 67 67 67 69 68 69 70 69 70 70 69 69 69 69 69 69 68 68 69 69 68 68 68 68 68 67 67 68 69 69 70 69 69 69 69 68 67 66 66 69 69 68 67 68 68 67 67 66 67 66 65 65 63 63 62
5 4 6 -0 -2 0 -4 -0 2 6 9 17 24 20 45 48 51 57 59 60 60 58 61 61 61 61 61 61 60 61 61 62 63 63 64 65 67 65 65 64 66 66 67 67 66 68 69 70 68 68 68 68 69 68 68 68 68 68 68 69 69 69 67 67 67 69 68 68 67 66 69 69 69 68 69 68 69 69 67 67 69 68 68 67 67 68 68 67 67 67 66 66 66 65 64 63 65
5 1 4 1 -3 -2 -6 -0 4 6 12 18 23 22 36 49 53 57 60 59 59 58 57 55 57 57 59 59 60 60 61 62 63 63 64 65 65 66 65 66 65 65 66 67 67 66 67 68 67 67 68 68 69 67 67 68 69 69 69 68 67 66 67 67 67 67 67 67 67 67 68 68 69 68 69 68 69 68 67 67 68 68 68 68 68 68 67 67 68 68 66 67 65 64 65 65 65
7 7 7 4 -1 -4 -3 2 5 4 11 18 25 23 27 44 54 56 60 57 55 56 56 56 57 57 60 60 60 60 59 59 59 62 63 61 63 64 63 64 64 65 65 65 65 66 66 66 67 67 66 67 65 67 67 67 67 67 69 68 67 67 67 67 67 67 67 68 67 68 68 68 68 68 68 69 69 68 68 67 68 68 68 68 67 67 65 66 67 66 66 65 65 66 67 64 65
2 1 0 3 1 -6 -1 3 5 5 9 19 21 19 42 48 53 56 56 55 54 53 55 56 57 58 59 58 57 57 57 59 60 62 62 62 63 64 64 63 63 64 65 65 65 65 65 65 66 65 67 68 67 68 66 68 68 68 65 66 66 65 66 65 67 66 67 66 67 67 67 67 67 68 68 68 68 68 67 68 67 68 67 67 67 66 67 67 67 66 65 65 65 64 64 64 65
1 1 1 1 -1 -5 -4 3 5 5 13 20 18 40 46 51 54 55 54 53 55 55 56 57 58 58 58 56 57 58 59 59 60 61 62 61 61 63 64 64 64 65 65 65 64 65 64 65 65 65 67 67 67 67 66 67 66 65 66 65 66 65 64 65 65 65 65 66 66 66 65 66 66 66 66 67 67 67 67 67 67 67 66 66 66 66 66 66 66 66 66 66 65 64 64 63 64
1 1 1 -2 2 -2 -4 2 4 6 17 16 33 33 48 51 54 54 52 53 54 54 56 57 58 58 58 56 58 59 58 60 61 61 61 62 62 63 64 64 65 63 64 65 64 64 65 65 66 65 66 65 66 67 68 67 67 65 64 63 64 63 63 63 64 65 65 66 66 66 66 66 66 65 66 66 66 66 67 66 66 66 66 66 65 66 65 66 65 66 65 64 64 64 63 64 64
6 3 2 -3 2 -1 9 12 10 9 12 16 40 36 50 53 52 53 55 55 54 55 55 56 57 58 57 56 58 58 58 59 59 60 61 62 62 63 63 64 64 65 65 64 65 65 65 66 65 64 66 65 67 66 69 66 68 66 65 64 63 62 64 64 64 64 65 64 64 64 64 64 64 63 64 64 65 64 65 65 64 65 65 65 65 65 65 64 65 64 64 63 63 62 63 64 65
11 9 6 1 -1 -2 7 12 17 13 17 17 41 38 49 52 54 54 54 55 56 57 57 58 57 56 57 56 57 58 58 59 59 60 60 61 61 62 62 63 63 64 64 64 65 65 65 66 65 65 65 65 64 66 67 67 66 66 65 65 65 64 63 64 64 64 63 63 63 63 63 63 62 62 62 62 63 63 63 64 64 63 63 64 64 64 64 64 64 64 64 64 64 63 62 62 64
11 6 2 -3 -5 -1 13 16 18 19 20 23 43 43 47 49 51 52 54 55 54 57 56 57 57 57 57 58 58 59 58 59 59 60 61 61 61 61 62 63 64 64 64 64 65 65 64 64 65 65 66 67 66 66 66 65 65 65 64 64 64 64 63 62 62 62 62 62 62 61 61 61 60 58 59 58 59 60 60 61 62 62 62 62 62 61 62 62 62 61 62 62 62 62 61 63 63
10 7 0 -2 -0 12 11 18 17 17 21 20 37 42 40 42 47 50 53 54 53 53 55 55 57 55 55 56 57 59 60 60 58 60 60 60 60 61 62 62 62 62 63 64 64 64 64 66 66 65 66 66 65 66 66 65 65 64 64 63 62 62 62 61 60 61 61 60 59 60 60 58 58 58 56 57 57 57 58 58 59 58 59 59 59 59 60 59 60 60 61 61 61 61 60 60 61
10 4 1 -1 -3 10 12 16 15 19 16 23 41 35 26 41 42 45 50 50 51 53 54 54 56 55 55 55 56 55 55 57 60 60 60 60 60 60 61 61 62 61 62 63 63 63 65 66 65 63 63 64 64 64 64 64 63 63 62 62 62 62 60 60 61 61 60 59 60 59 59 59 57 57 58 57 56 56 57 58 58 58 57 57 57 58 57 58 57 58 59 59 60 59 60 58 59
-0 2 -0 4 4 8 10 18 20 19 18 28 36 30 25 31 36 43 48 49 51 51 53 53 54 55 55 55 56 56 56 58 60 59 60 60 60 60 60 60 60 61 61 62 63 63 63 62 61 62 61 61 62 63 63 63 62 61 61 61 61 60 60 60 60 60 60 59 58 58 58 57 57 56 56 55 55 55 56 57 57 57 56 56 54 56 57 57 57 57 57 59 59 59 59 58 58
-2 4 5 9 6 7 8 20 21 15 15 22 29 30 25 21 32 40 46 46 49 51 51 52 53 54 55 54 55 56 57 59 59 60 60 60 60 59 60 60 60 61 61 61 61 61 61 61 60 60 60 60 60 60 61 61 61 62 60 60 59 59 59 58 58 57 58 58 57 57 57 56 56 56 54 54 54 53 54 54 55 55 54 54 52 55 56 55 56 57 57 57 57 57 57 57 56
1 6 8 14 12 15 22 22 16 14 18 19 27 28 22 16 30 40 45 43 46 50 51 52 53 54 54 55 55 57 57 57 58 59 60 60 60 60 60 60 60 61 61 61 60 60 59 59 59 58 57 58 59 59 59 60 59 59 60 60 58 57 57 57 57 57 56 56 55 55 54 54 54 54 53 52 52 51 52 52 52 52 53 52 52 53 53 53 54 55 55 55 55 55 54 55 55
7 7 8 13 18 20 19 17 16 22 15 16 20 27 25 21 25 39 45 41 44 48 51 52 52 54 53 55 55 55 56 57 56 58 59 60 60 60 60 60 60 60 60 60 59 59 59 59 58 57 57 57 58 58 58 58 58 58 57 58 57 57 57 56 56 55 54 55 54 54 53 53 52 51 52 52 52 51 51 52 52 51 52 53 52 52 52 52 53 54 54 54 54 53 53 53 54
9 7 4 6 13 16 20 19 18 16 12 13 21 27 26 20 18 46 44 42 46 48 47 51 52 52 53 55 55 55 55 55 57 57 58 59 59 59 58 58 58 58 58 58 59 58 57 57 56 57 57 57 56 56 57 56 56 56 56 56 56 56 55 55 54 54 53 53 53 52 52 51 51 50 51 50 50 50 51 51 52 52 51 52 51 52 52 52 53 52 52 52 52 52 52 52 52
8 8 5 7 13 22 15 17 15 15 12 19 20 24 25 22 22 34 41 37 39 44 43 48 51 51 53 53 53 54 54 56 57 57 57 58 57 57 57 57 57 57 57 57 57 57 57 56 56 56 56 56 56 56 56 56 56 55 55 55 55 55 55 54 53 53 53 52 52 52 51 50 49 50 50 49 49 49 49 50 51 50 51 52 52 51 51 51 51 50 51 51 51 51 50 51 49
7 9 8 12 13 13 16 14 15 17 18 17 18 18 18 23 23 32 39 37 41 45 47 47 47 49 51 52 52 52 54 55 57 57 57 57 56 56 56 56 55 56 56 56 56 56 56 55 55 55 54 55 55 54 54 54 54 54 54 54 54 53 53 53 52 51 51 51 51 51 50 49 49 50 49 48 48 48 48 49 49 50 49 50 50 50 50 50 51 48 49 49 49 50 50 50 50
4 8 7 14 15 13 16 13 15 17 16 16 13 11 18 19 23 29 33 34 36 39 37 42 46 49 52 49 51 51 54 55 56 56 57 57 57 56 56 55 55 55 56 56 55 55 55 54 54 54 54 54 54 54 53 53 52 53 53 52 52 52 51 50 50 51 51 50 50 50 49 49 48 48 47 48 48 48 48 47 47 48 48 49 48 49 49 49 50 48 47 49 48 50 49 48 48
1 4 4 8 11 17 11 14 13 15 14 16 18 20 23 23 42 47 37 35 37 40 42 44 46 50 50 51 51 52 53 54 56 56 57 57 56 56 55 55 55 55 55 55 55 55 55 54 54 54 53 53 53 53 52 52 52 52 52 51 51 51 50 50 50 50 50 50 50 49 49 49 48 47 48 47 47 47 46 45 46 46 47 48 48 47 48 47 48 47 46 47 48 48 48 47 47
5 1 5 5 9 10 14 22 28 25 16 12 19 23 30 37 37 44 36 33 34 39 42 42 48 50 51 52 53 53 54 55 56 56 56 56 56 56 55 55 54 54 54 54 54 54 54 54 53 53 52 52 52 51 51 51 51 51 50 50 50 50 50 50 49 50 50 50 50 49 48 48 48 48 47 47 46 45 45 45 46 46 46 47 47 46 46 46 46 46 45 46 47 46 47 47 46
0 2 3 6 7 5 17 13 15 14 12 15 22 20 19 24 28 36 38 33 37 38 42 46 49 51 51 52 53 54 54 56 55 55 55 55 55 55 54 54 54 54 54 54 54 54 54 53 53 52 51 51 50 50 50 50 50 50 50 50 50 50 49 49 49 49 50 49 49 49 49 47 46 46 45 45 45 45 45 45 44 44 45 45 46 46 44 44 45 45 46 45 45 46 45 46 46
-2 -1 2 5 10 9 11 14 14 13 13 13 20 22 19 20 28 34 36 35 37 39 45 48 48 51 52 53 53 54 54 55 55 55 54 54 54 54 54 54 53 53 54 53 52 53 52 53 51 51 51 51 50 50 50 50 50 49 49 49 49 49 49 48 48 48 49 48 48 48 48 47 47 46 45 44 43 42 43 43 43 42 43 44 45 45 45 45 44 44 45 43 44 44 43 44 44
-1 0 -1 3 12 15 10 13 16 15 12 17 13 18 18 21 28 34 32 35 37 38 46 47 49 50 52 52 52 53 54 56 55 55 54 54 54 54 53 53 52 52 52 52 52 52 52 51 51 50 50 50 50 49 50 49 49 48 48 48 48 46 46 47 47 48 48 46 45 46 46 46 45 44 44 43 41 40 41 40 41 40 40 41 42 43 44 43 44 44 44 43 42 43 41 42 42
0 5 3 1 18 13 14 21 12 12 12 12 13 16 21 25 27 33 32 32 36 38 43 47 49 49 52 53 53 53 55 55 55 55 54 53 53 53 52 52 52 51 51 52 52 51 51 50 50 50 49 49 49 49 49 48 48 48 48 47 46 47 47 47 48 48 48 47 47 46 45 45 43 43 43 42 41 40 39 40 38 39 38 40 40 43 43 43 43 43 43 43 42 41 40 41 42
1 8 8 2 9 12 12 13 10 13 11 12 9 10 21 36 41 35 33 33 35 36 42 46 49 48 50 53 53 54 54 54 54 54 53 53 52 52 52 51 51 50 50 50 50 50 49 49 49 49 48 48 48 48 48 47 47 47 47 47 46 48 47 48 48 47 47 45 45 44 45 44 44 43 41 40 40 41 40 39 38 36 37 37 39 40 41 42 41 42 43 43 42 42 41 41 42